Tracking 20037 objects as of 20-Nov-2019
Live streaming from Space Station
objects crossing your sky now

COSMOS 1996

Track COSMOS 1996 now!
10-day predictions
COSMOS 1996 is classified as:


NORAD ID: 19787
Int'l Code: 1989-009C
Perigee: 1,412.3 km
Apogee: 1,424.3 km
Inclination: 82.6 °
Period: 114.0 minutes
Semi major axis: 7789 km
RCS: 1.1678 m2 (large)
Launch date: February 10, 1989
Source: Commonwealth of Independent States (former USSR) (CIS)
Launch site: PLESETSK MISSILE AND SPACE COMPLEX (PKMTR)
aabbcc
Your satellite tracking list
Your tracking list is empty




NASA's NSSDC Master Catalog

Two Line Element Set (TLE):
1 19787U 89009C   19324.42288234  .00000022  00000-0  63265-4 0  9990
2 19787  82.6128  92.4473 0007664  98.3451 323.0698 12.62858706418585
Source of the keplerian elements: AFSPC